Location: Brunembert
(50.7122°N, 1.8935°E)
Time: 02:45:31
(UTC+00:00)

Landsat 7 - Visible Passes

Search period start: 05 August 2021 00:00
Search period end: 15 August 2021 00:00
Orbit: 701 x 703 km, 98.0° (Epoch: 04 August)

Date Brightness Start Highest point End Pass type
(mag) Time Alt. Az. Time Alt. Az. Time Alt. Az.
05 Aug 5.5 21:18:34 10° SSW 21:22:43 30° W 21:26:55 10° NNW visible
06 Aug 3.9 20:22:39 10° SSE 20:27:25 88° WSW 20:32:13 10° NNW visible
06 Aug 6.4 22:03:42 10° WSW 22:05:54 13° W 22:08:07 10° WNW visible
07 Aug 5.1 21:05:49 10° SSW 21:10:14 38° W 21:14:41 10° NNW visible
08 Aug 3.8 20:10:17 10° SSE 20:15:01 73° ENE 20:19:48 10° N visible
08 Aug 6.3 21:50:17 10° SW 21:53:20 17° W 21:56:23 10° NW visible
09 Aug 4.7 20:53:10 10° S 20:57:46 48° W 21:02:24 10° NNW visible
10 Aug 4.0 19:58:00 10° SSE 20:02:39 58° ENE 20:07:21 10° N visible
10 Aug 6.0 21:37:11 10° SW 21:40:47 21° W 21:44:24 10° NW visible
11 Aug 4.3 20:40:37 10° S 20:45:20 62° W 20:50:04 10° NNW visible
12 Aug 5.6 21:24:15 10° SSW 21:28:15 27° W 21:32:17 10° NW visible
13 Aug 3.9 20:28:09 10° S 20:32:54 79° WSW 20:37:41 10° NNW visible
13 Aug 6.5 22:09:55 10° WSW 22:11:29 11° W 22:13:02 10° WNW visible
14 Aug 5.3 21:11:28 10° SSW 21:15:45 33° W 21:20:06 10° NNW visible
